TimeCST,TemperatureF,Dew PointF,Humidity,Sea Level PressureIn,VisibilityMPH,Wind Direction,Wind SpeedMPH,Gust SpeedMPH,PrecipitationIn,Events,Conditions,WindDirDegrees,DateUTC
12:55 AM,39.2,30.2,70,30.31,10.0,ENE,6.9,-,N/A,,Clear,60,2013-03-08 06:55:00
1:55 AM,37.4,30.2,75,30.32,10.0,ENE,5.8,-,N/A,,Clear,70,2013-03-08 07:55:00
2:15 AM,37.4,30.2,75,30.33,10.0,East,4.6,-,N/A,,Clear,80,2013-03-08 08:15:00
2:35 AM,37.4,28.4,70,30.33,10.0,ENE,4.6,-,N/A,,Clear,70,2013-03-08 08:35:00
2:55 AM,35.6,28.4,75,30.33,10.0,ENE,3.5,-,N/A,,Clear,60,2013-03-08 08:55:00
3:15 AM,35.6,28.4,75,30.33,10.0,ENE,5.8,-,N/A,,Clear,70,2013-03-08 09:15:00
3:35 AM,35.6,28.4,75,30.33,10.0,ENE,5.8,-,N/A,,Clear,70,2013-03-08 09:35:00
3:55 AM,35.6,28.4,75,30.33,10.0,ENE,4.6,-,N/A,,Clear,70,2013-03-08 09:55:00
4:15 AM,35.6,28.4,75,30.33,10.0,ENE,4.6,-,N/A,,Clear,70,2013-03-08 10:15:00
4:35 AM,35.6,28.4,75,30.33,10.0,ENE,4.6,-,N/A,,Clear,70,2013-03-08 10:35:00
4:55 AM,33.8,28.4,81,30.33,10.0,East,4.6,-,N/A,,Clear,80,2013-03-08 10:55:00
5:55 AM,33.8,28.4,81,30.35,10.0,ENE,4.6,-,N/A,,Clear,70,2013-03-08 11:55:00
6:55 AM,33.8,28.4,81,30.38,10.0,East,4.6,-,N/A,,Clear,90,2013-03-08 12:55:00
7:55 AM,37.4,30.2,75,30.40,10.0,Variable,4.6,-,N/A,,Clear,0,2013-03-08 13:55:00
8:55 AM,41.0,30.2,65,30.40,10.0,East,6.9,-,N/A,,Clear,90,2013-03-08 14:55:00
9:55 AM,46.4,32.0,57,30.37,10.0,ENE,6.9,-,N/A,,Clear,60,2013-03-08 15:55:00
10:55 AM,50.0,33.8,54,30.36,10.0,Calm,Calm,-,N/A,,Clear,0,2013-03-08 16:55:00
11:55 AM,53.6,32.0,44,30.35,10.0,Variable,4.6,-,N/A,,Scattered Clouds,0,2013-03-08 17:55:00
12:55 PM,57.2,30.2,36,30.31,10.0,Variable,5.8,-,N/A,,Scattered Clouds,0,2013-03-08 18:55:00
1:55 PM,59.0,28.4,31,30.27,10.0,East,5.8,-,N/A,,Scattered Clouds,90,2013-03-08 19:55:00
2:55 PM,60.8,28.4,29,30.27,10.0,East,3.5,-,N/A,,Scattered Clouds,100,2013-03-08 20:55:00
3:55 PM,62.6,26.6,26,30.25,10.0,Calm,Calm,-,N/A,,Scattered Clouds,0,2013-03-08 21:55:00
4:55 PM,60.8,24.8,25,30.24,10.0,Calm,Calm,-,N/A,,Mostly Cloudy,0,2013-03-08 22:55:00
5:55 PM,57.2,24.8,29,30.23,10.0,NE,3.5,-,N/A,,Overcast,50,2013-03-08 23:55:00
6:55 PM,55.4,28.4,36,30.21,10.0,NE,3.5,-,N/A,,Overcast,50,2013-03-09 00:55:00
7:55 PM,55.4,28.4,36,30.22,10.0,NE,3.5,-,N/A,,Overcast,50,2013-03-09 01:55:00
8:55 PM,53.6,28.4,38,30.23,10.0,Calm,Calm,-,N/A,,Overcast,0,2013-03-09 02:55:00
9:55 PM,51.8,28.4,41,30.22,10.0,Calm,Calm,-,N/A,,Overcast,0,2013-03-09 03:55:00
10:55 PM,48.2,30.2,50,30.22,10.0,East,3.5,-,N/A,,Overcast,100,2013-03-09 04:55:00
11:55 PM,48.2,28.4,46,30.18,10.0,East,3.5,-,N/A,,Overcast,80,2013-03-09 05:55:00